EHI
51 37 20 9 3 1 0 0 0 0 1 1 1 0 0 0 0 0 0 0 0 0 0 0 0 0 0 0 0 0 0 0 0 0 0 0 0 0 0 0 0 0 0
57 40 21 9 3 0 0 0 0 0 0 0 0 0 0 0 0 0 0 0 0 0 0 0 0 0 0 0 0 0 0 0 0 0 0 0 0 0 0 0 0 0 0
60 41 20 9 2 0 0 0 0 0 0 0 0 0 0 0 0 0 0 0 0 0 0 0 0 0 0 0 0 0 0 0 0 0 0 0 0 0 0 0 0 0 0
47 30 13 5 1 0 0 0 0 0 0 0 0 0 0 0 0 0 0 0 0 0 0 0 0 0 0 0 0 0 0 0 0 0 0 0 0 0 0 0 0 0 0
22 13 3 0 0 0 0 0 0 0 0 0 0 0 0 0 0 0 0 0 0 0 0 0 0 0 0 0 0 0 0 0 0 0 0 0 0 0 0 0 0 0 0
6 3 0 0 0 0 0 0 0 0 0 0 0 0 0 0 0 0 0 0 0 0 0 0 0 0 0 0 0 0 0 0 0 0 0 0 0 0 0 0 0 0 0
1 0 0 0 0 0 0 0 0 0 0 0 0 0 0 0 0 0 0 0 0 0 0 0 0 0 0 0 0 0 0 0 0 0 0 0 0 0 0 0 0 0 0
0 0 0 0 0 0 0 0 0 0 0 0 0 0 0 0 0 0 0 0 0 0 0 0 0 0 0 0 0 0 0 0 0 0 0 0 0 0 0 0 0 0 0
0 0 0 0 0 0 0 0 0 0 0 0 0 0 0 0 0 0 0 0 0 0 0 0 0 0 0 0 0 0 0 0 0 0 0 0 0 0 0 0 0 0 0
0 0 0 0 0 0 0 0 0 0 0 0 0 0 0 0 0 0 0 0 0 0 0 0 0 0 0 0 0 0 0 0 0 0 0 0 0 0 0 0 0 0 0
0 0 0 0 0 0 0 0 0 0 0 0 0 0 0 0 0 0 0 0 0 0 0 0 0 0 0 0 0 0 0 0 0 0 0 0 0 0 0 0 0 0 0
0 0 0 0 0 0 0 0 0 0 0 0 0 0 0 0 0 0 0 0 0 0 0 0 0 0 0 0 0 0 0 0 0 0 0 0 0 0 0 0 0 0 0
0 0 0 0 0 0 0 0 0 0 0 0 0 0 0 0 0 0 0 0 0 0 0 0 0 0 0 0 0 0 0 0 0 0 0 0 0 0 0 0 0 0 0
0 0 0 0 0 0 0 0 0 0 0 0 0 0 0 0 0 0 0 0 0 0 0 0 0 0 0 0 0 0 0 0 0 0 0 0 0 0 0 0 0 0 0
0 0 0 0 0 0 0 0 0 0 0 0 0 0 0 0 0 0 0 0 0 0 0 0 0 0 0 0 0 0 0 0 0 0 0 0 0 0 0 0 0 0 0
0 0 0 0 0 0 0 0 0 0 0 0 0 0 0 0 0 0 0 0 0 0 0 0 0 0 0 0 0 0 0 0 0 0 0 0 0 0 0 0 0 0 0
0 0 0 0 0 0 0 0 0 0 0 0 0 0 0 0 0 0 0 0 0 0 0 0 0 0 0 0 0 0 0 0 0 0 0 0 0 0 0 0 0 0 0
0 0 0 0 0 0 0 0 0 0 0 0 0 0 0 0 0 0 0 0 0 0 0 0 0 0 0 0 0 0 0 0 0 0 0 0 0 0 0 0 0 0 0
0 0 0 0 0 0 0 0 0 0 0 0 0 0 0 0 0 0 0 0 0 0 0 0 0 0 0 0 0 0 0 0 0 0 0 0 0 0 0 0 0 0 0
0 0 0 0 0 0 0 0 0 0 0 0 0 0 0 0 0 0 0 0 0 0 0 0 0 0 0 0 0 0 0 0 0 0 0 0 0 0 0 0 0 0 0
0 0 0 0 0 0 0 0 0 0 0 0 0 0 0 0 0 0 0 0 0 0 0 0 0 0 0 0 0 0 0 0 0 0 0 0 0 0 0 0 0 0 0
0 0 0 0 0 0 0 0 0 0 0 0 0 0 0 0 0 0 0 0 0 0 0 0 0 0 0 0 0 0 0 0 0 0 0 0 0 0 0 0 0 0 0
0 0 0 0 0 0 0 0 0 0 0 0 0 0 0 0 0 0 0 0 0 0 0 0 0 0 0 0 0 0 0 0 0 0 0 0 0 0 0 0 0 0 0
0 0 0 0 0 0 0 0 0 0 0 0 0 0 0 0 0 0 0 0 0 0 0 0 0 0 0 0 0 0 0 0 0 0 0 0 0 0 0 0 0 0 0
0 0 0 0 0 0 0 0 0 0 0 0 0 0 0 0 0 0 0 0 0 0 0 0 0 0 0 0 0 0 0 0 0 0 0 0 0 0 0 0 0 0 0
0 0 0 0 0 0 0 0 0 0 0 0 0 0 0 0 0 0 0 0 0 0 0 0 0 0 0 0 0 0 0 0 0 0 0 0 0 0 0 0 0 0 0
Wind_Speed
12 10 9 9 9 9 9 8 9 7 6 5 4 4 5 4 5 5 7 7 7 7 6 5 5 4 3 4 4 3 3 4 4 4 5 5 4 4 5 5 6 8 8
14 12 10 8 9 9 9 9 9 9 8 5 4 4 4 4 3 4 5 6 7 7 7 6 5 5 4 6 5 4 3 3 4 3 4 6 5 3 5 6 8 9 7
17 14 12 10 10 10 9 10 9 10 9 8 5 5 4 4 4 5 5 6 7 7 7 7 6 6 5 4 4 4 3 2 2 1 1 3 5 6 3 4 6 6 6
16 15 14 13 12 11 11 11 10 10 9 8 8 8 6 4 4 3 4 5 7 7 7 6 6 5 4 3 3 3 1 1 2 2 2 3 4 5 5 3 3 6 7
16 16 15 15 13 12 11 9 9 9 8 8 8 8 6 4 3 4 5 6 5 6 6 5 4 4 2 2 2 2 2 1 2 2 3 4 4 5 6 7 4 5 5
16 16 15 14 12 10 9 8 8 7 7 7 7 7 7 5 5 5 5 4 3 4 6 5 4 3 3 3 2 3 3 3 3 3 3 3 3 4 5 7 8 7 6
17 16 15 12 10 9 8 7 7 6 5 6 6 6 6 5 5 3 4 4 3 3 5 5 5 4 4 4 3 3 4 4 4 4 4 4 5 5 5 7 8 8 6
16 16 14 12 10 9 8 7 7 6 6 6 6 6 5 4 3 3 2 2 2 3 4 5 5 5 5 5 4 4 4 5 5 6 6 5 5 5 5 6 8 9 6
17 17 14 11 10 9 7 7 7 6 6 6 6 5 4 3 2 2 2 2 2 3 4 5 5 5 5 5 5 3 4 5 4 6 6 5 5 5 6 6 6 7 8
16 15 12 10 9 8 7 7 7 6 5 5 4 3 2 2 1 1 3 3 4 4 5 5 4 4 4 4 3 2 3 5 5 5 7 7 6 6 6 6 6 7 9
15 12 10 10 9 8 7 6 6 5 5 4 3 3 1 1 2 3 4 4 3 4 4 4 2 2 2 2 2 3 5 6 7 8 8 9 9 7 6 6 6 6 7
13 13 12 11 9 7 6 6 5 5 4 3 2 0 1 2 3 4 4 4 4 4 4 3 1 1 1 0 2 4 6 7 9 10 9 11 9 8 7 6 7 7 7
14 13 12 10 9 7 6 6 5 4 3 2 1 2 3 3 4 4 4 4 4 4 4 3 3 3 3 2 2 4 6 7 9 10 10 11 10 10 7 6 6 6 7
14 13 10 9 8 7 7 5 4 3 2 3 2 3 3 4 4 4 4 4 4 4 5 4 4 4 3 2 3 5 6 8 9 10 10 10 10 10 7 6 6 6 7
14 13 10 8 7 7 5 4 3 3 3 3 4 4 4 4 3 4 4 5 5 5 5 5 4 3 2 1 4 5 8 8 10 10 10 10 15 15 9 8 8 8 8
12 12 11 9 7 6 4 3 3 4 4 4 5 4 3 3 4 5 5 5 5 5 5 5 4 3 1 2 8 10 7 9 10 10 9 11 12 13 16 17 17 16 13
13 11 9 8 6 4 3 2 3 4 4 4 4 3 3 4 5 5 5 5 5 4 5 4 2 1 1 3 8 15 10 9 10 10 9 10 11 13 8 14 19 18 21
12 10 8 6 4 3 1 2 4 4 3 3 3 4 5 6 6 6 6 5 4 3 3 3 1 1 1 4 9 17 10 9 9 9 10 11 12 10 11 13 13 13 14
10 8 7 6 4 3 1 3 4 3 3 3 5 6 7 7 7 7 7 5 2 2 3 2 2 1 3 7 12 17 8 8 10 10 10 11 11 13 17 13 12 14 12
8 7 6 5 4 1 1 2 3 4 5 6 7 7 7 7 7 7 6 2 2 4 5 4 3 3 4 9 13 18 7 9 9 9 10 13 12 16 17 11 10 12 10
8 8 7 5 2 2 1 2 4 5 6 6 6 7 7 6 5 4 4 5 6 6 6 6 5 5 6 9 15 19 10 9 10 10 9 9 16 18 17 13 9 10 8
8 7 5 3 3 3 2 3 5 6 5 5 6 7 6 5 6 8 9 8 7 6 6 6 6 5 6 9 14 19 17 16 11 9 8 9 16 17 15 10 10 7 1
6 4 4 3 4 4 3 3 5 5 4 6 6 6 6 7 8 9 8 6 5 4 4 5 6 7 6 8 13 16 18 20 12 9 15 16 15 13 9 11 11 5 4
4 3 3 3 3 3 2 3 2 3 5 5 6 5 6 7 7 6 5 5 4 4 4 6 7 7 7 8 9 10 10 14 12 10 12 14 12 9 9 8 6 5 5
3 3 2 1 1 1 1 0 2 5 5 6 6 6 6 5 5 4 3 3 1 2 3 6 7 8 8 12 17 13 10 10 10 10 6 5 6 7 7 6 6 5 5
2 1 1 1 1 1 1 2 4 5 5 5 6 5 5 4 3 3 2 2 2 5 8 9 10 8 11 16 17 19 19 17 17 9 6 6 6 6 7 7 6 6 6
Wind_Direction
113 110 105 99 86 69 66 63 61 49 56 60 60 60 56 45 47 50 43 37 30 22 24 13 5 9 25 27 25 17 15 13 356 348 325 309 302 316 321 331 334 327 324
121 117 109 95 84 81 75 69 64 58 57 64 68 79 85 63 56 41 35 29 28 20 22 15 11 15 24 28 28 31 22 4 16 3 328 318 318 319 339 333 321 317 319
131 127 118 106 96 88 81 78 71 68 65 68 69 63 53 41 28 25 23 19 24 24 24 26 31 28 32 27 24 41 35 354 347 27 307 302 292 314 270 298 301 313 323
129 126 120 110 102 97 90 84 77 73 67 67 71 70 67 55 28 22 22 15 20 23 28 36 31 27 29 26 6 39 9 331 302 291 234 238 264 290 299 293 297 312 310
129 125 120 114 108 102 95 89 83 76 71 70 71 71 63 53 35 28 21 12 8 17 21 29 24 19 14 1 346 329 311 267 254 251 252 258 265 257 283 298 288 282 273
128 121 117 114 110 104 98 94 88 79 73 73 71 75 72 62 47 27 14 2 354 357 3 9 5 349 335 319 306 295 298 287 277 269 253 249 258 272 276 289 295 289 281
135 130 126 123 121 116 112 107 101 90 81 78 73 74 77 71 57 31 19 10 353 339 339 346 332 325 315 309 309 307 306 301 300 288 275 261 253 257 271 283 290 288 284
140 136 134 134 132 128 122 115 105 95 83 79 75 69 68 63 45 31 23 356 319 295 305 318 319 316 316 326 330 327 324 326 314 306 295 281 273 267 266 272 286 291 280
142 138 138 138 132 125 120 117 108 94 84 86 88 72 65 61 38 7 340 307 297 302 321 321 322 325 335 345 352 353 344 337 323 307 298 288 278 274 269 265 267 279 289
142 141 140 133 121 116 112 107 106 105 103 99 94 92 73 50 4 328 314 305 301 305 317 323 333 350 13 28 30 0 337 330 310 299 296 289 282 277 271 265 262 262 273
144 139 130 120 113 109 110 110 107 106 104 107 105 93 41 328 318 306 298 298 296 304 309 316 340 31 58 43 15 334 324 316 306 301 299 292 286 279 273 266 264 261 264
134 126 119 114 111 111 109 103 100 95 101 114 111 114 298 312 317 310 306 305 300 300 299 297 283 184 151 150 332 323 323 311 309 306 302 297 297 284 275 269 264 263 259
126 120 115 115 115 111 104 97 90 83 73 65 38 323 311 315 316 309 307 305 300 303 303 283 248 223 204 229 300 307 304 302 303 302 299 296 297 294 284 275 273 272 274
125 119 114 111 108 102 99 94 80 63 39 16 353 322 307 305 303 304 306 298 297 300 297 280 252 232 215 237 303 307 300 299 302 300 296 294 293 288 286 290 283 285 284
123 121 119 115 107 97 89 80 53 12 352 334 317 304 302 305 306 310 304 299 303 308 303 295 275 253 221 266 321 314 312 309 306 303 299 299 304 304 311 310 299 294 287
131 127 121 114 108 103 91 61 9 333 319 304 295 300 305 307 299 292 295 302 307 307 309 307 295 279 230 341 335 332 313 308 305 302 303 306 305 307 315 312 305 296 289
138 130 123 120 117 110 97 47 321 309 305 291 289 282 271 284 284 288 295 292 292 295 303 307 303 244 254 335 332 335 330 307 303 301 304 309 306 309 300 307 306 297 289
128 126 126 122 122 120 87 333 312 298 280 270 274 267 266 272 276 283 282 276 275 287 300 315 11 117 322 332 329 335 327 303 300 300 298 299 301 301 311 310 300 295 293
126 129 133 133 128 113 36 346 327 297 284 284 278 272 268 270 275 276 273 268 271 328 355 12 33 351 314 324 331 339 317 310 307 305 304 302 299 306 315 311 302 301 302
118 124 124 115 110 128 355 348 319 305 292 282 280 283 286 285 282 276 277 296 37 40 33 18 356 341 322 325 335 338 322 317 315 312 307 307 307 312 315 309 299 300 307
118 116 111 116 162 221 264 302 302 290 283 293 307 317 317 311 304 325 20 54 62 49 28 7 347 334 329 332 335 337 333 322 318 313 311 309 313 315 313 308 297 294 298
108 109 116 166 230 245 245 279 289 285 303 329 342 340 344 3 37 62 63 61 56 40 15 357 342 327 322 330 332 333 330 326 314 307 305 305 313 317 316 317 319 323 46
114 125 158 211 252 257 239 265 285 306 341 357 351 350 16 40 62 74 71 60 48 35 7 349 333 327 329 335 335 331 328 329 325 312 317 324 325 327 327 334 347 26 80
129 147 172 215 262 276 240 228 299 19 31 15 360 15 50 62 63 72 75 74 55 32 6 353 342 338 339 346 345 337 330 330 331 326 323 326 331 341 342 348 8 44 73
141 150 158 187 255 240 188 110 65 57 40 21 20 40 69 85 74 69 73 92 97 68 19 358 346 342 344 342 338 339 336 335 333 328 328 341 346 358 2 8 23 49 76
132 120 91 43 3 70 54 52 72 72 58 40 39 53 72 78 72 62 23 353 331 343 358 2 357 346 338 335 342 344 342 341 342 347 350 356 2 7 9 13 27 49 74